CAPE
0 0 0 0 0 0 0 0 0 0 0 0 0 0 0 0 0 0 0 0 0 0 0 0 0 0 0 0 0 0 0 0 0 0 0 0 0 0 0 0 0 0 0 0
0 0 0 0 0 0 0 0 0 0 0 0 0 0 0 0 0 0 0 0 0 0 0 0 0 0 0 0 0 0 0 0 0 0 0 0 0 0 0 0 0 0 0 0
0 0 0 0 0 0 0 0 0 0 0 0 0 0 0 0 0 0 0 0 0 0 0 0 0 0 0 0 0 0 0 0 0 0 0 0 0 0 0 0 0 0 0 0
0 0 0 0 0 0 0 0 0 0 0 0 0 0 0 0 0 0 0 0 0 0 0 0 0 0 0 0 0 0 0 0 0 0 0 0 0 0 0 0 0 0 0 0
0 0 0 0 0 0 0 0 0 0 0 0 0 0 0 0 0 0 0 0 0 0 0 0 0 0 0 0 0 0 0 0 0 0 0 0 0 0 0 0 0 0 0 0
0 0 0 0 0 0 0 0 0 0 0 0 0 0 0 0 0 0 0 0 0 0 0 0 0 0 0 0 0 0 0 0 0 0 0 0 0 0 0 0 0 0 0 0
0 0 0 0 0 0 0 0 0 0 0 0 0 0 0 0 0 0 0 0 0 0 0 0 0 0 0 0 0 0 0 0 0 0 0 0 0 0 0 0 0 0 0 0
4 0 0 0 0 0 0 0 0 0 0 0 0 0 0 0 0 0 0 0 0 0 0 0 0 0 0 0 0 0 0 0 0 0 0 0 0 0 0 0 0 0 0 0
0 1 0 0 0 0 0 0 0 0 0 0 0 0 0 0 0 0 0 0 0 0 0 0 0 0 0 0 0 0 0 0 0 0 0 0 0 0 0 0 0 0 0 0
0 0 4 0 0 0 0 0 0 0 0 0 0 0 0 0 0 0 0 0 0 0 0 0 0 0 0 0 0 0 0 0 0 0 0 0 0 0 0 0 0 0 0 0
3 1 0 2 0 0 0 0 0 0 0 0 0 0 0 0 0 0 0 0 0 0 0 0 0 0 0 0 0 0 0 0 0 0 0 0 0 0 0 0 0 0 0 0
0 0 2 0 2 0 0 0 0 0 0 0 0 0 0 0 0 0 0 0 0 0 0 0 0 0 0 0 0 0 0 0 0 0 0 0 0 0 0 0 0 0 0 0
0 0 0 1 10 0 0 0 0 0 0 0 0 0 0 0 0 0 0 0 0 0 0 0 0 0 0 0 0 0 0 0 0 0 0 0 0 0 0 0 0 0 0 0
0 0 0 0 0 15 0 0 0 0 0 0 0 0 0 0 0 0 0 0 0 0 0 0 0 0 0 0 0 0 0 0 0 0 0 0 0 0 0 0 0 0 0 0
0 0 0 0 0 11 2 0 0 0 0 0 0 0 0 0 0 0 0 0 0 0 0 0 0 0 0 0 0 0 0 0 0 0 0 0 0 0 0 0 0 0 0 0
0 0 0 0 0 16 2 0 0 0 0 0 0 0 0 0 0 0 0 0 0 0 0 0 0 0 0 0 0 0 0 0 0 0 0 0 0 0 0 0 0 0 0 0
0 0 0 0 0 4 4 0 0 0 0 0 0 0 0 0 0 0 0 0 0 0 0 0 0 0 0 0 0 0 0 0 0 0 0 0 0 0 0 0 0 0 0 0
0 1 8 3 0 8 1 0 0 0 0 0 0 0 0 0 0 0 0 0 0 0 0 0 0 0 0 0 0 0 0 0 0 0 0 0 0 0 0 0 0 0 0 0
0 0 9 4 3 9 0 0 0 0 0 0 0 0 0 0 0 0 0 0 0 0 0 0 0 0 0 0 0 0 0 0 0 0 0 0 0 0 0 0 0 0 0 0
0 0 9 5 0 1 1 0 1 0 1 0 0 0 0 0 0 0 0 0 0 0 0 0 0 0 0 0 0 0 0 0 0 0 0 0 0 0 0 0 0 0 0 0
0 0 1 0 0 0 1 3 2 0 0 0 0 0 0 0 0 0 0 0 0 0 0 0 0 0 0 0 0 0 0 0 0 0 0 0 0 0 0 0 0 0 0 0
0 0 0 0 1 1 2 0 0 0 0 1 1 0 0 0 0 0 0 0 0 0 0 0 0 0 0 0 0 0 0 0 0 0 0 0 0 0 0 0 0 0 0 0
0 0 0 0 1 0 0 0 4 0 0 0 0 0 0 0 0 0 0 0 0 0 0 0 0 0 0 0 0 0 0 0 0 0 0 0 0 0 0 0 0 0 0 0
0 0 0 0 0 0 0 0 0 0 0 0 0 0 0 0 0 0 0 0 0 0 0 0 0 0 0 0 0 0 0 0 0 0 0 0 0 0 0 0 0 0 0 0
0 0 0 0 0 0 0 0 0 0 0 0 0 0 0 0 0 0 0 0 0 0 0 0 0 0 0 0 0 0 0 0 0 0 0 0 0 0 0 0 0 0 0 0
0 0 0 0 0 0 0 0 0 0 3 2 2 3 0 0 0 0 0 0 0 0 0 0 0 0 0 0 0 0 0 0 0 0 0 0 0 0 0 0 0 0 0 0
0 0 0 0 0 0 0 0 0 0 0 0 6 1 15 0 0 0 0 0 0 0 0 0 0 0 0 0 0 0 0 0 0 0 0 0 0 0 0 0 0 0 0 0
CIN
-0 -0 -0 -0 -0 -0 -0 -0 -0 -0 -0 -0 -0 -0 -0 -0 -0 -0 -0 -0 -0 -0 -0 -0 -0 -0 -0 -0 -0 -0 -0 -0 -0 -0 -0 -0 -0 -0 -0 -0 -0 -0 -0 -0
-0 -0 -0 -0 -0 -0 -0 -0 -0 -0 -0 -0 -0 -0 -0 -0 -0 -0 -0 -0 -0 -0 -0 -0 -0 -0 -0 -0 -0 -0 -0 -0 -0 -0 -0 -0 -0 -0 -0 -0 -0 -0 -0 -0
-0 -0 -0 -0 -0 -0 -0 -0 -0 -0 -0 -0 -0 -0 -0 -0 -0 -0 -0 -0 -0 -0 -0 -0 -0 -0 -0 -0 -0 -0 -0 -0 -0 -0 -0 -0 -0 -0 -0 -0 -0 -0 -0 -0
-0 -0 -0 -0 -0 -0 -0 -0 -0 -0 -0 -0 -0 -0 -0 -0 -0 -0 -0 -0 -0 -0 -0 -0 -0 -0 -0 -0 -0 -0 -0 -0 -0 -0 -0 -0 -0 -0 -0 -0 -0 -0 -0 -0
-0 -0 -0 -0 -0 -0 -0 -0 -0 -0 -0 -0 -0 -0 -0 -0 -0 -0 -0 -0 -0 -0 -0 -0 -0 -0 -0 -0 -0 -0 -0 -0 -0 -0 -0 -0 -0 -0 -0 -0 -0 -0 -0 -0
-0 -0 -0 -0 -0 -0 -0 -0 -0 -0 -0 -0 -0 -0 -0 -0 -0 -0 -0 -0 -0 -0 -0 -0 -0 -0 -0 -0 -0 -0 -0 -0 -0 -0 -0 -0 -0 -0 -0 -0 -0 -0 -0 -0
-0 -0 -0 -0 -0 -0 -0 -0 -0 -0 -0 -0 -0 -0 -0 -0 -0 -0 -0 -0 -0 -0 -0 -0 -0 -0 -0 -0 -0 -0 -0 -0 -0 -0 -0 -0 -0 -0 -0 -0 -0 -0 -0 -0
-3 -10 -0 -0 -0 -0 -0 -0 -0 -0 -0 -0 -0 -0 -0 -0 -0 -0 -0 -0 -0 -0 -0 -0 -0 -0 -0 -0 -0 -0 -0 -1 -0 -0 -0 -0 -0 -0 -0 -0 -0 -0 -0 -0
-0 -1 -14 -0 -0 -0 -0 -0 -0 -0 -0 -0 -0 -0 -0 -0 -0 -0 -0 -0 -0 -0 -0 -0 -0 -0 -0 -0 -0 -0 -0 -0 -0 -0 -0 -0 -0 -0 -0 -0 -0 -0 -0 -0
-0 -0 -11 -5 -0 -0 -0 -0 -0 -0 -0 -0 -0 -0 -0 -0 -0 -0 -0 -0 -0 -0 -0 -0 -0 -0 -0 -0 -0 -0 -0 -2 -0 -4 -0 -0 -0 -0 -0 -0 -0 -0 -0 -0
-0 -0 -0 -11 -0 -0 -0 -0 -0 -0 -0 -0 -0 -0 -0 -0 -0 -0 -0 -0 -0 -0 -0 -0 -0 -0 -0 -0 -0 -0 -0 -0 -0 -0 -0 -0 -0 -0 -0 -0 -0 -0 -0 -0
-0 -0 -0 -0 -0 -0 -0 -0 -0 -0 -0 -0 -0 -0 -0 -0 -0 -0 -0 -0 -0 -0 -0 -0 -0 -0 -0 -0 -0 -0 -0 -0 -0 -0 -0 -0 -0 -0 -0 -0 -0 -0 -0 -0
-0 -0 -0 -0 -0 -0 -0 -0 -0 -0 -0 -0 -0 -0 -0 -0 -0 -0 -0 -0 -0 -0 -0 -0 -0 -0 -0 -0 -0 -0 -0 -0 -0 -0 -0 -0 -0 -0 -0 -0 -0 -0 -0 -0
-0 -0 -0 -0 -0 -1 -0 -0 -0 -0 -0 -0 -0 -0 -0 -0 -0 -0 -0 -0 -0 -0 -0 -0 -0 -0 -0 -0 -0 -0 -0 -0 -0 -0 -0 -0 -0 -0 -0 -0 -0 -0 -0 -0
-0 -0 -0 -0 -0 -1 -2 -0 -0 -0 -0 -0 -0 -0 -0 -0 -0 -0 -0 -0 -0 -0 -0 -0 -0 -0 -0 -0 -0 -0 -0 -0 -0 -0 -0 -0 -0 -0 -0 -0 -0 -0 -0 -0
-0 -0 -0 -0 -0 -0 -0 -0 -0 -0 -5 -0 -0 -0 -0 -0 -0 -0 -0 -0 -0 -0 -0 -0 -0 -0 -0 -0 -0 -0 -0 -0 -0 -0 -0 -0 -0 -0 -0 -0 -0 -0 -0 -0
-0 -0 -0 -0 -0 -7 -11 -0 -0 -0 -0 -0 -0 -0 -0 -0 -0 -0 -0 -0 -0 -0 -0 -0 -0 -0 -0 -0 -0 -0 -0 -0 -0 -0 -0 -0 -0 -0 -0 -0 -0 -0 -0 -0
-0 -5 -5 -0 -0 -1 -1 -0 -0 -0 -0 -0 -0 -0 -0 -0 -0 -0 -0 -0 -0 -0 -0 -0 -0 -0 -0 -0 -0 -0 -0 -0 -0 -0 -0 -0 -0 -0 -0 -0 -0 -0 -0 -0
-0 -0 -22 -17 -16 -6 -1 -0 -0 -0 -0 -0 -0 -0 -0 -0 -0 -0 -0 -0 -0 -0 -0 -0 -0 -0 -0 -0 -0 -0 -0 -0 -0 -0 -0 -0 -0 -0 -0 -0 -0 -0 -0 -0
-0 -0 -9 -6 -0 -0 -0 -0 -13 -0 -0 -0 -0 -0 -0 -0 -0 -0 -0 -0 -0 -0 -0 -0 -0 -0 -0 -0 -0 -0 -0 -0 -0 -0 -0 -0 -0 -0 -0 -0 -0 -0 -0 -0
-0 -1 -2 -0 -0 -0 -0 -2 -1 -0 -0 -0 -0 -0 -0 -0 -0 -0 -0 -0 -0 -0 -0 -0 -0 -0 -0 -0 -0 -0 -0 -0 -0 -0 -0 -0 -0 -0 -0 -0 -0 -0 -0 -0
-0 -0 -0 -1 -0 -0 -1 -5 -0 -0 -0 -0 -0 -0 -0 -0 -0 -0 -0 -0 -0 -0 -0 -0 -0 -0 -0 -0 -0 -0 -0 -0 -0 -0 -0 -0 -0 -0 -0 -0 -0 -0 -0 -0
-0 -0 -0 -1 -3 -1 -9 -0 -6 -0 -0 -0 -0 -0 -0 -0 -0 -0 -0 -0 -0 -0 -0 -0 -0 -0 -0 -0 -0 -0 -0 -0 -0 -0 -0 -0 -0 -0 -0 -0 -0 -0 -0 -0
-0 -0 -0 -0 -0 -3 -0 -0 -0 -0 -0 -0 -0 -0 -0 -0 -0 -0 -0 -0 -0 -0 -0 -0 -0 -0 -0 -0 -0 -0 -0 -0 -0 -0 -0 -0 -0 -0 -0 -0 -0 -0 -0 -0
-0 -0 -0 -0 -0 -0 -0 -0 -0 -0 -4 -0 -0 -0 -0 -0 -0 -0 -0 -0 -0 -0 -0 -0 -0 -0 -0 -0 -0 -0 -0 -0 -0 -0 -0 -0 -0 -0 -0 -0 -0 -0 -0 -0
-0 -0 -0 -0 -0 -0 -0 -0 -0 -0 -20 -42 -24 -6 -0 -0 -0 -0 -0 -0 -0 -0 -0 -0 -0 -0 -0 -0 -0 -0 -0 -0 -0 -0 -0 -0 -0 -0 -0 -0 -0 -0 -0 -0
-0 -0 -0 -0 -0 -0 -0 -0 -0 -0 -0 -0 -1 -3 -7 -0 -15 -0 -0 -0 -0 -0 -0 -0 -0 -0 -0 -0 -0 -0 -0 -0 -0 -0 -0 -0 -0 -0 -0 -0 -0 -0 -0 -0
Wind_Speed
14 2 6 6 7 1 16 15 18 13 17 20 22 25 24 24 22 19 20 21 20 20 20 17 11 12 13 10 11 12 14 15 17 16 17 14 14 15 13 20 21 19 23 27
18 10 12 14 15 9 14 15 15 14 17 22 23 23 24 21 21 20 20 20 19 20 21 19 19 19 18 19 18 18 13 16 10 17 14 11 4 5 6 9 17 19 11 20
23 24 13 17 20 16 16 15 16 15 19 20 23 23 21 21 19 19 19 19 19 19 19 18 18 18 18 20 18 17 16 17 18 17 16 17 17 19 21 21 20 20 22 23
28 29 31 23 23 20 19 18 16 16 16 18 20 18 19 20 19 18 18 18 18 18 17 16 16 17 17 17 17 17 16 15 16 17 18 19 21 22 21 23 23 21 21 22
30 31 32 29 26 23 22 19 16 16 17 16 17 16 17 18 17 18 17 17 16 17 16 16 15 16 16 16 17 17 15 13 14 16 16 18 21 22 23 24 25 28 27 29
29 30 31 30 28 24 21 19 18 17 15 14 14 14 15 15 16 15 16 16 16 15 15 15 14 15 15 15 15 16 15 13 11 11 14 17 16 16 19 17 17 21 19 22
28 29 29 29 28 25 20 18 18 18 13 12 12 12 13 14 14 13 14 14 14 14 15 14 13 14 14 14 14 14 13 12 12 13 19 10 11 5 11 8 13 14 15 17
28 28 27 26 26 25 20 18 18 17 14 13 9 10 11 11 11 11 11 12 13 13 12 11 10 10 11 11 10 11 8 9 9 8 7 19 14 19 14 9 4 8 15 17
28 27 26 25 24 23 20 19 18 18 18 12 14 13 11 8 8 8 9 13 11 12 10 10 10 10 11 11 13 16 8 10 8 10 7 10 13 17 15 17 14 13 12 11
27 27 25 24 23 21 21 20 18 19 21 17 14 13 12 12 14 13 15 14 12 12 9 7 7 7 10 9 10 11 12 9 10 8 6 9 10 11 9 11 12 13 13 11
27 26 24 23 22 20 20 20 19 19 21 24 14 15 15 14 13 15 14 16 14 12 7 8 8 6 7 8 9 8 7 8 7 8 7 8 10 14 10 14 23 9 7 7
26 27 26 24 20 18 18 20 19 19 19 21 19 17 13 11 12 13 10 16 16 11 12 13 13 11 13 9 12 11 7 5 8 3 3 14 11 8 5 11 15 19 1 10
26 27 26 25 23 17 17 20 19 20 24 27 21 19 18 14 9 11 18 18 15 15 15 18 20 16 16 15 12 12 13 11 17 22 15 12 17 22 21 24 23 25 21 25
28 28 29 28 25 18 13 19 19 21 23 27 24 17 18 18 17 12 12 18 17 18 16 20 23 25 17 22 23 16 17 17 23 23 32 34 23 12 29 38 35 34 37 22
29 31 31 30 29 23 16 19 19 18 22 26 32 34 27 24 21 18 15 15 17 20 24 26 28 23 27 30 29 20 24 27 23 31 29 21 30 34 35 36 39 42 41 40
31 32 33 31 28 20 21 26 22 18 19 26 30 24 27 25 23 20 18 18 19 19 22 26 26 26 27 33 34 26 22 29 21 21 32 33 41 45 38 49 50 44 40 39
32 31 31 29 23 18 23 24 23 17 18 26 31 29 23 21 20 19 19 19 21 22 25 29 30 29 25 34 42 32 30 31 39 38 41 47 33 37 35 39 36 35 35 34
30 31 30 24 16 19 23 22 20 17 23 25 28 29 29 22 27 27 23 23 23 25 28 29 32 30 30 40 34 40 38 35 37 42 38 43 47 41 42 41 38 40 43 42
31 30 27 22 22 23 24 23 19 21 23 26 25 29 33 24 27 26 27 28 33 29 33 32 29 32 36 39 39 38 37 36 39 46 49 48 48 48 44 42 42 41 41 36
28 24 24 26 24 24 23 23 25 24 24 26 33 31 34 28 30 31 29 28 30 33 32 28 32 37 41 41 42 40 38 36 38 44 46 45 47 46 44 41 40 38 37 33
23 26 26 24 24 24 24 28 26 25 30 27 29 28 32 26 33 31 28 30 30 35 32 31 33 36 31 28 31 32 34 35 36 38 42 45 45 46 45 43 39 35 33 28
24 25 24 24 23 25 26 28 25 26 30 25 27 27 25 26 23 26 26 31 29 36 26 32 37 36 30 30 31 33 34 36 38 38 40 40 40 39 38 37 35 32 26 20
22 22 24 24 22 27 28 31 28 27 26 26 27 29 26 24 23 25 26 29 32 25 32 36 36 29 28 28 29 31 32 34 37 38 37 36 35 33 31 30 28 24 22 20
23 24 28 25 25 25 24 25 25 24 26 31 30 30 28 24 26 26 29 29 27 33 37 37 31 23 25 28 29 31 35 36 38 38 38 36 33 31 30 29 27 26 26 23
23 22 27 25 24 24 25 24 21 24 26 30 32 29 26 27 29 27 26 28 30 30 30 24 23 26 29 32 33 35 36 37 37 38 39 38 35 32 31 28 26 24 24 25
23 23 25 25 27 28 25 25 25 27 27 30 27 28 28 27 26 26 27 27 29 31 28 26 29 32 35 38 39 40 40 39 39 39 39 39 37 35 33 31 29 27 26 28
24 27 24 29 34 37 37 35 34 28 32 34 30 32 32 32 32 33 30 35 31 31 35 35 34 39 43 42 44 41 40 41 41 43 43 42 41 38 36 36 36 35 33 32
Wind_Direction
65 352 313 325 312 88 92 103 98 106 108 104 107 109 118 124 125 134 132 135 140 149 155 158 0 331 320 333 334 334 314 325 308 314 317 323 318 317 318 310 311 315 315 311
56 65 306 312 316 90 97 103 106 112 113 100 106 113 117 124 126 129 132 132 137 140 140 141 148 153 161 146 139 158 120 220 305 294 297 300 313 152 145 303 279 201 231 218
47 42 307 310 319 69 84 105 103 111 102 111 107 113 118 119 129 129 131 136 140 139 139 148 145 151 159 158 165 164 157 182 188 188 192 190 190 190 186 186 203 208 204 222
31 28 352 319 320 18 63 77 95 107 110 108 108 119 121 120 120 132 137 138 146 143 141 150 156 160 162 166 172 168 181 193 195 210 216 215 219 212 199 197 199 202 222 211
19 13 356 336 328 27 28 49 77 92 100 119 113 123 129 123 128 124 130 132 136 144 147 148 148 155 167 171 181 174 187 196 206 229 221 217 224 219 211 210 210 220 226 239
8 5 359 347 337 12 29 34 35 46 86 109 109 125 125 135 128 140 137 129 124 141 167 169 167 159 167 170 162 160 168 176 197 195 232 251 228 203 196 197 197 205 208 212
356 354 355 353 348 358 24 34 27 22 77 94 119 106 124 126 140 139 133 133 136 135 115 124 158 177 183 173 170 154 155 162 187 218 269 157 94 109 52 156 193 194 212 222
342 344 346 346 349 356 6 18 16 22 36 44 87 109 88 82 97 127 134 137 141 103 98 113 128 137 126 117 133 153 75 94 169 141 198 250 333 358 9 17 171 184 205 217
333 330 332 335 340 345 355 5 9 3 357 43 22 26 26 77 89 77 63 18 26 39 78 116 124 124 98 111 66 7 75 25 82 73 117 119 72 47 70 38 244 99 125 170
328 328 329 328 327 337 338 337 359 350 326 345 12 10 16 12 359 10 351 354 5 358 35 77 134 123 55 116 109 77 68 98 161 148 131 191 186 156 176 45 311 72 85 115
330 327 329 328 328 328 333 333 342 337 328 314 344 342 341 346 348 344 353 349 347 356 25 32 32 53 47 45 37 53 77 77 85 95 117 149 79 25 53 18 312 42 114 123
327 329 328 326 332 332 334 328 334 336 332 328 332 330 337 339 343 340 345 334 341 347 348 341 348 348 347 358 348 346 1 27 13 124 68 340 357 3 18 352 244 255 306 213
321 323 328 328 325 330 330 326 332 335 324 319 328 333 334 331 324 332 313 317 324 321 323 324 321 323 326 325 327 330 331 321 319 321 338 247 249 244 244 246 245 246 241 240
314 314 316 322 324 330 330 323 327 326 323 315 319 345 345 341 333 324 312 313 322 320 315 308 309 309 318 314 312 312 317 324 315 302 293 256 275 259 280 281 295 296 290 282
309 307 307 310 313 318 321 319 320 323 317 312 306 309 318 320 316 316 316 308 307 305 302 300 300 308 305 303 305 298 298 304 306 250 299 304 292 309 306 304 299 294 296 291
309 307 305 305 309 319 316 310 319 315 315 314 312 318 316 321 322 318 313 306 306 303 305 302 303 304 300 297 297 313 309 298 298 257 310 307 301 297 306 287 281 291 296 295
311 313 313 307 309 312 307 310 316 323 317 312 309 309 318 327 328 327 322 317 311 306 302 297 298 302 300 295 291 307 306 303 298 300 303 297 309 306 308 303 304 301 301 303
313 315 319 321 315 313 307 309 315 314 312 310 306 306 309 317 311 308 314 310 308 305 302 302 299 302 298 293 299 300 301 303 300 298 302 300 299 303 301 302 301 297 297 297
312 313 314 316 314 308 310 313 312 306 305 304 303 305 307 314 310 309 309 307 299 302 296 297 300 298 295 299 301 304 302 301 301 299 296 299 297 298 299 298 296 299 301 298
317 318 310 305 311 316 316 311 306 303 302 297 295 299 296 304 304 304 307 306 301 298 298 301 296 296 296 298 299 301 302 303 304 300 300 304 301 301 300 299 299 300 302 303
317 310 306 313 317 312 307 301 299 302 301 302 303 301 295 304 298 299 300 299 301 297 300 298 300 301 307 313 311 311 310 310 309 308 305 302 302 300 301 301 300 301 302 302
314 311 313 313 309 303 299 298 303 300 301 307 306 308 307 307 308 302 302 296 298 294 303 298 298 303 302 308 310 314 317 317 317 315 313 313 310 307 305 304 303 302 305 308
315 312 308 307 304 296 297 296 300 302 309 311 310 307 307 308 306 303 301 295 293 304 297 297 300 307 308 312 315 316 319 321 323 322 321 320 321 320 317 312 312 313 311 311
308 306 300 299 299 299 302 303 308 310 312 311 306 301 302 302 300 296 296 296 299 294 295 296 305 311 312 320 321 322 320 321 322 325 326 324 323 321 322 320 315 310 307 309
306 306 299 299 303 304 307 310 308 318 318 317 313 303 299 297 294 295 295 295 294 297 299 306 316 320 319 318 319 318 318 319 321 323 324 325 323 320 320 321 320 317 312 308
303 300 302 306 304 304 307 306 305 313 315 316 314 304 300 294 295 291 290 293 294 304 308 310 313 314 314 313 312 312 313 312 312 315 319 318 317 318 315 315 312 310 308 306
300 300 300 298 298 296 298 301 303 308 306 301 302 295 292 299 291 287 290 289 297 305 307 307 309 310 306 308 309 307 309 310 309 307 308 310 309 311 311 308 306 303 302 301